TimeCET,TemperatureF,Dew PointF,Humidity,Sea Level PressureIn,VisibilityMPH,Wind Direction,Wind SpeedMPH,Gust SpeedMPH,PrecipitationIn,Events,Conditions,WindDirDegrees,DateUTC
12:00 AM,37.4,37.4,100,30.33,6.2,Variable,1.2,-,N/A,,Scattered Clouds,0,2012-11-12 23:00:00
12:30 AM,35.6,35.6,100,30.33,6.2,Calm,Calm,-,N/A,,Scattered Clouds,0,2012-11-12 23:30:00
1:00 AM,35.6,35.6,100,30.33,6.2,Variable,2.3,-,N/A,,Partly Cloudy,0,2012-11-13 00:00:00
1:30 AM,35.6,35.6,100,30.30,6.2,Variable,1.2,-,N/A,,Partly Cloudy,0,2012-11-13 00:30:00
2:00 AM,35.6,35.6,100,30.30,6.2,NNW,2.3,-,N/A,,Partly Cloudy,330,2012-11-13 01:00:00
3:00 AM,35.6,33.8,93,30.30,6.2,Variable,1.2,-,N/A,,Partly Cloudy,0,2012-11-13 02:00:00
3:30 AM,35.6,35.6,100,30.30,6.2,Variable,2.3,-,N/A,,Partly Cloudy,0,2012-11-13 02:30:00
4:00 AM,35.6,35.6,100,30.30,6.2,North,5.8,-,N/A,,Partly Cloudy,360,2012-11-13 03:00:00
4:30 AM,35.6,33.8,93,30.27,6.2,Variable,1.2,-,N/A,,Partly Cloudy,0,2012-11-13 03:30:00
5:00 AM,35.6,33.8,93,30.27,6.2,Variable,1.2,-,N/A,,Partly Cloudy,0,2012-11-13 04:00:00
5:30 AM,33.8,33.8,100,30.27,6.2,Variable,1.2,-,N/A,,Partly Cloudy,0,2012-11-13 04:30:00
6:00 AM,33.8,33.8,100,30.30,6.2,Variable,2.3,-,N/A,,Partly Cloudy,0,2012-11-13 05:00:00
6:30 AM,35.6,33.8,93,30.27,6.2,Calm,Calm,-,N/A,,Partly Cloudy,0,2012-11-13 05:30:00
7:00 AM,33.8,33.8,100,30.27,6.2,SSE,1.2,-,N/A,,Partly Cloudy,160,2012-11-13 06:00:00
7:30 AM,33.8,33.8,100,30.27,-9999.0,Variable,2.3,-,N/A,,Clear,0,2012-11-13 06:30:00
8:00 AM,33.8,32.0,93,30.27,-9999.0,Calm,Calm,-,N/A,,Clear,0,2012-11-13 07:00:00
8:30 AM,32.0,32.0,100,30.27,-9999.0,Calm,Calm,-,N/A,,Clear,0,2012-11-13 07:30:00
9:00 AM,33.8,33.8,100,30.27,-9999.0,Calm,Calm,-,N/A,,Clear,0,2012-11-13 08:00:00
9:30 AM,35.6,35.6,100,30.27,-9999.0,Calm,Calm,-,N/A,,Clear,0,2012-11-13 08:30:00
10:00 AM,41.0,35.6,81,30.27,-9999.0,Calm,Calm,-,N/A,,Clear,0,2012-11-13 09:00:00
10:30 AM,42.8,35.6,76,30.27,-9999.0,Variable,1.2,-,N/A,,Clear,0,2012-11-13 09:30:00
11:00 AM,46.4,32.0,57,30.27,-9999.0,Calm,Calm,-,N/A,,Clear,0,2012-11-13 10:00:00
11:30 AM,46.4,33.8,62,30.24,-9999.0,Calm,Calm,-,N/A,,Clear,0,2012-11-13 10:30:00
12:00 PM,48.2,32.0,54,30.24,-9999.0,Calm,Calm,-,N/A,,Clear,0,2012-11-13 11:00:00
12:30 PM,50.0,33.8,54,30.24,-9999.0,Variable,2.3,-,N/A,,Clear,0,2012-11-13 11:30:00
1:00 PM,50.0,32.0,50,30.21,-9999.0,East,1.2,-,N/A,,Clear,100,2012-11-13 12:00:00
1:30 PM,51.8,33.8,50,30.21,-9999.0,East,1.2,-,N/A,,Clear,100,2012-11-13 12:30:00
2:00 PM,51.8,32.0,47,30.18,-9999.0,Variable,1.2,-,N/A,,Clear,0,2012-11-13 13:00:00
2:30 PM,53.6,30.2,41,30.18,-9999.0,Variable,2.3,-,N/A,,Clear,0,2012-11-13 13:30:00
3:00 PM,53.6,30.2,41,30.18,-9999.0,East,1.2,-,N/A,,Clear,80,2012-11-13 14:00:00
3:30 PM,53.6,32.0,44,30.18,-9999.0,Variable,2.3,-,N/A,,Clear,0,2012-11-13 14:30:00
4:00 PM,53.6,32.0,44,30.15,-9999.0,Variable,1.2,-,N/A,,Clear,0,2012-11-13 15:00:00
4:30 PM,53.6,33.8,47,30.15,-9999.0,Variable,1.2,-,N/A,,Clear,0,2012-11-13 15:30:00
5:00 PM,51.8,37.4,58,30.15,-9999.0,ENE,2.3,-,N/A,,Clear,60,2012-11-13 16:00:00
5:30 PM,48.2,39.2,71,30.18,-9999.0,NE,6.9,-,N/A,,Clear,40,2012-11-13 16:30:00
6:00 PM,46.4,39.2,76,30.18,-9999.0,NE,3.5,-,N/A,,Clear,50,2012-11-13 17:00:00
6:30 PM,44.6,37.4,76,30.15,-9999.0,North,4.6,-,N/A,,Clear,10,2012-11-13 17:30:00
7:00 PM,42.8,39.2,87,30.15,-9999.0,Variable,1.2,-,N/A,,Clear,0,2012-11-13 18:00:00
7:30 PM,41.0,37.4,87,30.18,-9999.0,ENE,1.2,-,N/A,,Clear,60,2012-11-13 18:30:00
8:30 PM,37.4,37.4,100,30.15,-9999.0,Calm,Calm,-,N/A,,Clear,0,2012-11-13 19:30:00
9:00 PM,35.6,35.6,100,30.15,-9999.0,Calm,Calm,-,N/A,,Clear,0,2012-11-13 20:00:00
9:30 PM,35.6,35.6,100,30.15,-9999.0,Calm,Calm,-,N/A,,Clear,0,2012-11-13 20:30:00
10:00 PM,35.6,35.6,100,30.15,-9999.0,Calm,Calm,-,N/A,,Clear,0,2012-11-13 21:00:00
10:30 PM,35.6,35.6,100,30.15,-9999.0,SE,1.2,-,N/A,,Clear,130,2012-11-13 21:30:00
11:00 PM,35.6,35.6,100,30.15,-9999.0,Variable,1.2,-,N/A,,Clear,0,2012-11-13 22:00:00
11:30 PM,35.6,33.8,93,30.15,-9999.0,NE,2.3,-,N/A,,Clear,50,2012-11-13 22:30:00